Location: Cluny
(50.9333°N, 112.8167°W)
Time: 19:45:53
(UTC-06:00)

Hamsat - Visible Passes

Search period start: 18 September 2014 00:00
Search period end: 28 September 2014 00:00
Orbit: 594 x 628 km, 97.6° (Epoch: 17 September)

Date Brightness Start Highest point End Pass type
(mag) Time Alt. Az. Time Alt. Az. Time Alt. Az.
21 Sep ? 19:58:44 10° WSW 20:01:00 14° W 20:03:17 10° NW visible
22 Sep ? 06:04:13 10° E 06:04:22 10° E 06:04:30 10° E visible
23 Sep ? 06:16:49 10° NE 06:19:05 14° E 06:21:19 10° ESE visible
24 Sep ? 06:30:41 10° NE 06:33:45 19° E 06:36:47 10° SE visible
25 Sep ? 06:44:49 10° NE 06:48:24 26° E 06:51:55 10° SSE visible
27 Sep ? 19:49:15 10° SW 19:51:59 16° W 19:54:44 10° NW visible
